,,PA_Meas_PMT16A,,PR_Meas_QMR101_102,,RH_Meas_QMH101,,SR_Meas_QMS101,,TA_Meas_QMH101,,GenWind,,GenWind,
time,status,PA,status,PR,status,RH,status,SR,status,TA,status,DirAvg,status,SpdAvg,
2012-01-01, 00:00:04,VALID,919.089,VALID,0,VALID,89.659,VALID,0,VALID,17.9858,VALID,224,VALID,0,
2012-01-01, 00:01:04,VALID,919.063,VALID,0,VALID,89.7886,VALID,0,VALID,17.9858,VALID,224,VALID,0,
2012-01-01, 00:02:04,VALID,919.019,VALID,0,VALID,90.0173,VALID,0,VALID,17.9872,VALID,224,VALID,0,
2012-01-01, 00:03:04,VALID,919.031,VALID,0,VALID,90.1774,VALID,0,VALID,17.9872,VALID,224,VALID,0.255078,
2012-01-01, 00:04:04,VALID,919.013,VALID,0,VALID,90.0097,VALID,0,VALID,18.0067,VALID,224,VALID,0,
2012-01-01, 00:05:04,VALID,919.02,VALID,0,VALID,89.9868,VALID,0,VALID,18.0651,VALID,224,VALID,0.0578125,
2012-01-01, 00:06:04,VALID,918.972,VALID,0,VALID,89.8648,VALID,0,VALID,18.1041,VALID,224,VALID,0.381641,
2012-01-01, 00:07:04,VALID,918.973,VALID,0,VALID,90.2231,VALID,0,VALID,18.1431,VALID,224,VALID,0.669141,
2012-01-01, 00:08:04,VALID,918.913,VALID,0,VALID,89.6971,VALID,0,VALID,18.2211,VALID,224,VALID,0.773047,
2012-01-01, 00:09:04,VALID,918.927,VALID,0,VALID,89.5599,VALID,0,VALID,18.2406,VALID,224,VALID,0.677344,
2012-01-01, 00:10:04,VALID,918.926,VALID,0,VALID,89.5523,VALID,0,VALID,18.2406,VALID,224,VALID,0.437891,
2012-01-01, 00:11:04,VALID,918.955,VALID,0,VALID,89.3769,VALID,0,VALID,18.2211,VALID,224,VALID,0.464063,
2012-01-01, 00:12:04,VALID,918.918,VALID,0,VALID,89.6742,VALID,0,VALID,18.2392,VALID,224,VALID,0.389844,
2012-01-01, 00:13:04,VALID,918.888,VALID,0,VALID,89.4379,VALID,0,VALID,18.3199,VALID,224,VALID,0,
2012-01-01, 00:14:04,VALID,918.836,VALID,0,VALID,88.7899,VALID,0,VALID,18.4007,VALID,224,VALID,0,
2012-01-01, 00:15:04,VALID,918.83,VALID,0,VALID,88.5917,VALID,0,VALID,18.4188,VALID,224,VALID,0.210547,
2012-01-01, 00:16:04,VALID,918.823,VALID,0,VALID,88.7137,VALID,0,VALID,18.3951,VALID,224,VALID,0.0726563,
2012-01-01, 00:17:04,VALID,918.815,VALID,0,VALID,86.48,VALID,0,VALID,18.4355,VALID,224,VALID,0.0605469,
2012-01-01, 00:18:04,VALID,918.799,VALID,0,VALID,87.3567,VALID,0,VALID,18.4355,VALID,224,VALID,0.310547,
2012-01-01, 00:19:04,VALID,918.806,VALID,0,VALID,87.8599,VALID,0.107441,VALID,18.4355,VALID,224,VALID,0.224609,
2012-01-01, 00:20:04,VALID,918.817,VALID,0,VALID,87.8599,VALID,0,VALID,18.416,VALID,224,VALID,0.0621094,
2012-01-01, 00:21:04,VALID,918.797,VALID,0,VALID,87.9132,VALID,0,VALID,18.3951,VALID,224,VALID,0,
2012-01-01, 00:22:04,VALID,918.821,VALID,0,VALID,87.5473,VALID,0,VALID,18.4174,VALID,224,VALID,0,
2012-01-01, 00:23:04,VALID,918.823,VALID,0,VALID,87.3262,VALID,0,VALID,18.377,VALID,224,VALID,0.296875,
2012-01-01, 00:24:04,VALID,918.802,VALID,0,VALID,88.1724,VALID,0,VALID,18.3352,VALID,224,VALID,0.171484,
2012-01-01, 00:25:04,VALID,918.786,VALID,0,VALID,87.7684,VALID,0,VALID,18.3589,VALID,224,VALID,0,
2012-01-01, 00:26:04,VALID,918.782,VALID,0,VALID,87.6159,VALID,0,VALID,18.3756,VALID,224,VALID,0,
2012-01-01, 00:27:04,VALID,918.761,VALID,0,VALID,87.2119,VALID,0,VALID,18.3366,VALID,224,VALID,0,
2012-01-01, 00:28:04,VALID,918.761,VALID,0,VALID,88.1572,VALID,0.107441,VALID,18.3589,VALID,224,VALID,0,
2012-01-01, 00:29:04,VALID,918.767,VALID,0,VALID,88.2715,VALID,0,VALID,18.2197,VALID,224,VALID,0,
2012-01-01, 00:30:04,VALID,918.747,VALID,0,VALID,88.1191,VALID,0,VALID,18.242,VALID,224,VALID,0,
2012-01-01, 00:31:04,VALID,918.72,VALID,0,VALID,88.0733,VALID,0,VALID,18.1835,VALID,224,VALID,0,
2012-01-01, 00:32:04,VALID,918.708,VALID,0,VALID,89.2168,VALID,0,VALID,18.1821,VALID,224,VALID,0.040625,
2012-01-01, 00:33:04,VALID,918.729,VALID,0,VALID,87.9361,VALID,0,VALID,18.1431,VALID,224,VALID,0,
2012-01-01, 00:34:04,VALID,918.716,VALID,0,VALID,88.2563,VALID,0,VALID,18.1028,VALID,225,VALID,0,
2012-01-01, 00:35:04,VALID,918.707,VALID,0,VALID,88.0962,VALID,0,VALID,18.1417,VALID,224,VALID,0.289844,
2012-01-01, 00:36:04,VALID,918.708,VALID,0,VALID,88.4088,VALID,0,VALID,18.1417,VALID,224,VALID,0.325,
2012-01-01, 00:37:04,VALID,918.672,VALID,0,VALID,88.5993,VALID,0,VALID,18.1209,VALID,224,VALID,0.590625,
2012-01-01, 00:38:04,VALID,918.685,VALID,0,VALID,88.9195,VALID,0,VALID,18.1807,VALID,224,VALID,0.741797,
2012-01-01, 00:39:04,VALID,918.718,VALID,0,VALID,89.3159,VALID,0,VALID,18.2211,VALID,224,VALID,0.209375,
2012-01-01, 00:40:04,VALID,918.696,VALID,0,VALID,88.1114,VALID,0,VALID,18.203,VALID,224,VALID,0.164453,
2012-01-01, 00:41:04,VALID,918.703,VALID,0,VALID,87.5092,VALID,0,VALID,18.1028,VALID,224,VALID,0.214844,
2012-01-01, 00:42:04,VALID,918.693,VALID,0,VALID,87.7226,VALID,0.107441,VALID,18.0638,VALID,224,VALID,0,
2012-01-01, 00:43:04,VALID,918.672,VALID,0,VALID,89.1101,VALID,0,VALID,18.1028,VALID,224,VALID,0.295703,
2012-01-01, 00:44:04,VALID,918.701,VALID,0,VALID,89.3159,VALID,0.107441,VALID,18.164,VALID,224,VALID,0.268359,
2012-01-01, 00:45:04,VALID,918.71,VALID,0,VALID,89.2168,VALID,0,VALID,18.1807,VALID,224,VALID,0.159375,
2012-01-01, 00:46:04,VALID,918.687,VALID,0,VALID,88.3325,VALID,0,VALID,18.242,VALID,224,VALID,0,
2012-01-01, 00:47:04,VALID,918.665,VALID,0,VALID,89.011,VALID,0.107441,VALID,18.1793,VALID,224,VALID,0.180859,
2012-01-01, 00:48:04,VALID,918.689,VALID,0,VALID,88.607,VALID,0,VALID,18.2809,VALID,224,VALID,0.165625,
2012-01-01, 00:49:04,VALID,918.69,VALID,0,VALID,87.776,VALID,0.107441,VALID,18.2211,VALID,224,VALID,0.230469,
2012-01-01, 00:50:04,VALID,918.651,VALID,0,VALID,88.889,VALID,0.107441,VALID,18.2211,VALID,224,VALID,0,
2012-01-01, 00:51:04,VALID,918.622,VALID,0,VALID,88.8967,VALID,0.107441,VALID,18.2601,VALID,224,VALID,0,
2012-01-01, 00:52:04,VALID,918.638,VALID,0,VALID,88.9271,VALID,0.107441,VALID,18.2601,VALID,224,VALID,0,
2012-01-01, 00:53:04,VALID,918.612,VALID,0,VALID,88.95,VALID,0.107441,VALID,18.2796,VALID,224,VALID,0,
2012-01-01, 00:54:04,VALID,918.596,VALID,0,VALID,88.5612,VALID,0.107441,VALID,18.2601,VALID,224,VALID,0,
2012-01-01, 00:55:04,VALID,918.588,VALID,0,VALID,88.8814,VALID,0,VALID,18.2406,VALID,224,VALID,0,
2012-01-01, 00:56:04,VALID,918.588,VALID,0,VALID,88.5155,VALID,0,VALID,18.2016,VALID,224,VALID,0.315234,
2012-01-01, 00:57:04,VALID,918.581,VALID,0,VALID,88.9424,VALID,0.107441,VALID,18.1626,VALID,224,VALID,0,
2012-01-01, 00:58:04,VALID,918.569,VALID,0,VALID,89.255,VALID,0,VALID,18.1612,VALID,224,VALID,0,
2012-01-01, 00:59:04,VALID,918.564,VALID,0,VALID,89.0567,VALID,0,VALID,18.2016,VALID,224,VALID,0.287109,
2012-01-01, 01:00:04,VALID,918.591,VALID,0,VALID,88.8662,VALID,0,VALID,18.2615,VALID,224,VALID,0,
2012-01-01, 01:01:04,VALID,918.564,VALID,0,VALID,88.3325,VALID,0.107441,VALID,18.2796,VALID,224,VALID,0.15,
2012-01-01, 01:02:04,VALID,918.564,VALID,0,VALID,87.9742,VALID,0.107441,VALID,18.299,VALID,224,VALID,0.219531,
2012-01-01, 01:03:04,VALID,918.517,VALID,0,VALID,88.0886,VALID,0,VALID,18.338,VALID,224,VALID,0.220703,
2012-01-01, 01:04:04,VALID,918.515,VALID,0,VALID,87.9056,VALID,0,VALID,18.377,VALID,224,VALID,0.227344,
2012-01-01, 01:05:04,VALID,918.484,VALID,0,VALID,87.8675,VALID,0,VALID,18.416,VALID,224,VALID,0.233984,
2012-01-01, 01:06:04,VALID,918.444,VALID,0,VALID,87.6312,VALID,0,VALID,18.455,VALID,224,VALID,0.375781,
2012-01-01, 01:07:04,VALID,918.429,VALID,0,VALID,87.6312,VALID,0,VALID,18.4745,VALID,224,VALID,0.733984,
2012-01-01, 01:08:04,VALID,918.432,VALID,0,VALID,87.4101,VALID,0,VALID,18.494,VALID,224,VALID,0.4,
2012-01-01, 01:09:04,VALID,918.37,VALID,0,VALID,87.4787,VALID,0.107441,VALID,18.455,VALID,224,VALID,0.435156,
2012-01-01, 01:10:04,VALID,918.379,VALID,0,VALID,87.4482,VALID,0.107441,VALID,18.4355,VALID,224,VALID,0.444922,
2012-01-01, 01:11:04,VALID,918.319,VALID,0,VALID,87.8294,VALID,0,VALID,18.416,VALID,224,VALID,0.867969,
2012-01-01, 01:12:04,VALID,918.303,VALID,0,VALID,87.3034,VALID,0,VALID,18.4745,VALID,224,VALID,0.504687,
2012-01-01, 01:13:04,VALID,918.304,VALID,0,VALID,86.541,VALID,0,VALID,18.5511,VALID,224,VALID,0.105469,
2012-01-01, 01:14:04,VALID,918.263,VALID,0,VALID,85.5957,VALID,0,VALID,18.6109,VALID,224,VALID,0.128906,
2012-01-01, 01:15:04,VALID,918.304,VALID,0,VALID,86.5563,VALID,0,VALID,18.6109,VALID,224,VALID,0.315234,
2012-01-01, 01:16:04,VALID,918.257,VALID,0,VALID,86.6172,VALID,0,VALID,18.6109,VALID,224,VALID,0.294141,
2012-01-01, 01:17:04,VALID,918.286,VALID,0,VALID,86.602,VALID,0,VALID,18.6109,VALID,224,VALID,0.403906,
2012-01-01, 01:18:04,VALID,918.258,VALID,0,VALID,86.1065,VALID,0,VALID,18.6694,VALID,224,VALID,0,
2012-01-01, 01:19:04,VALID,918.263,VALID,0,VALID,85.3823,VALID,0,VALID,18.6889,VALID,224,VALID,0.0605469,
2012-01-01, 01:20:04,VALID,918.262,VALID,0,VALID,85.3594,VALID,0,VALID,18.6889,VALID,224,VALID,0.00429688,
2012-01-01, 01:21:04,VALID,918.203,VALID,0,VALID,85.1459,VALID,0,VALID,18.6889,VALID,224,VALID,0.335938,
2012-01-01, 01:22:04,VALID,918.197,VALID,0,VALID,84.1168,VALID,0,VALID,18.6723,VALID,224,VALID,0.347656,
2012-01-01, 01:23:04,VALID,918.169,VALID,0,VALID,86.0684,VALID,0,VALID,18.5734,VALID,224,VALID,0.498437,
2012-01-01, 01:24:04,VALID,918.164,VALID,0,VALID,86.8383,VALID,0,VALID,18.4759,VALID,224,VALID,0.448438,
2012-01-01, 01:25:04,VALID,918.155,VALID,0,VALID,87.3491,VALID,0,VALID,18.4174,VALID,224,VALID,0.212109,
2012-01-01, 01:26:04,VALID,918.146,VALID,0,VALID,87.4711,VALID,0,VALID,18.3784,VALID,224,VALID,0,
2012-01-01, 01:27:04,VALID,918.124,VALID,0,VALID,87.6083,VALID,0,VALID,18.3589,VALID,224,VALID,0,
2012-01-01, 01:28:04,VALID,918.153,VALID,0,VALID,87.2805,VALID,0,VALID,18.3408,VALID,224,VALID,0,
2012-01-01, 01:29:04,VALID,918.053,VALID,0,VALID,87.1814,VALID,0,VALID,18.3213,VALID,225,VALID,0,
2012-01-01, 01:30:04,VALID,918.051,VALID,0,VALID,87.1433,VALID,0,VALID,18.2796,VALID,225,VALID,0,
2012-01-01, 01:31:04,VALID,918.036,VALID,0,VALID,87.2424,VALID,0,VALID,18.2809,VALID,224,VALID,0,
2012-01-01, 01:32:04,VALID,918.03,VALID,0,VALID,87.6388,VALID,0,VALID,18.242,VALID,224,VALID,0,
2012-01-01, 01:33:04,VALID,918.03,VALID,0,VALID,87.9513,VALID,0,VALID,18.2225,VALID,225,VALID,0.273438,
2012-01-01, 01:34:04,VALID,918.031,VALID,0,VALID,87.4406,VALID,0,VALID,18.2225,VALID,224,VALID,0.239844,
2012-01-01, 01:35:04,VALID,917.997,VALID,0,VALID,87.837,VALID,0,VALID,18.2225,VALID,224,VALID,0.142578,
2012-01-01, 01:36:04,VALID,917.977,VALID,0,VALID,88.4774,VALID,0,VALID,18.1835,VALID,224,VALID,0.548047,
2012-01-01, 01:37:04,VALID,918.01,VALID,0,VALID,88.6146,VALID,0,VALID,18.1431,VALID,225,VALID,0.00898437,
2012-01-01, 01:38:04,VALID,918.057,VALID,0,VALID,88.5688,VALID,0,VALID,18.1041,VALID,224,VALID,0,
2012-01-01, 01:39:04,VALID,918.057,VALID,0,VALID,88.8357,VALID,0,VALID,18.1028,VALID,224,VALID,0,
2012-01-01, 01:40:04,VALID,918.068,VALID,0,VALID,89.011,VALID,0,VALID,18.1445,VALID,224,VALID,0,
2012-01-01, 01:41:04,VALID,918.028,VALID,0,VALID,88.7137,VALID,0,VALID,18.1821,VALID,224,VALID,0,
2012-01-01, 01:42:04,VALID,918.009,VALID,0,VALID,88.2944,VALID,0,VALID,18.2601,VALID,224,VALID,0,
2012-01-01, 01:43:04,VALID,917.971,VALID,0,VALID,87.776,VALID,0,VALID,18.3185,VALID,224,VALID,0,
2012-01-01, 01:44:04,VALID,917.949,VALID,0,VALID,87.5016,VALID,0,VALID,18.3965,VALID,224,VALID,0.188672,
2012-01-01, 01:45:04,VALID,917.952,VALID,0,VALID,86.2285,VALID,0,VALID,18.3965,VALID,224,VALID,0,
2012-01-01, 01:46:04,VALID,917.905,VALID,0,VALID,86.3428,VALID,0,VALID,18.377,VALID,224,VALID,0.0046875,
2012-01-01, 01:47:04,VALID,917.888,VALID,0,VALID,86.6554,VALID,0,VALID,18.377,VALID,224,VALID,0.658594,
2012-01-01, 01:48:04,VALID,917.869,VALID,0,VALID,86.5868,VALID,0,VALID,18.2977,VALID,224,VALID,0.214844,
2012-01-01, 01:49:04,VALID,917.826,VALID,0,VALID,87.2729,VALID,0,VALID,18.2211,VALID,224,VALID,0.178516,
2012-01-01, 01:50:04,VALID,917.809,VALID,0,VALID,87.7303,VALID,0,VALID,18.1431,VALID,224,VALID,0.907031,
2012-01-01, 01:51:04,VALID,917.78,VALID,0,VALID,87.9209,VALID,0,VALID,17.9482,VALID,224,VALID,0.689062,
2012-01-01, 01:52:04,VALID,917.779,VALID,0,VALID,88.1953,VALID,0,VALID,17.8131,VALID,224,VALID,0.417188,
2012-01-01, 01:53:04,VALID,917.743,VALID,0,VALID,88.9653,VALID,0,VALID,17.8145,VALID,224,VALID,0.301562,
2012-01-01, 01:54:04,VALID,917.758,VALID,0,VALID,89.4989,VALID,0,VALID,17.7936,VALID,224,VALID,0,
2012-01-01, 01:55:04,VALID,917.728,VALID,0,VALID,89.5828,VALID,0,VALID,17.834,VALID,224,VALID,0,
2012-01-01, 01:56:04,VALID,917.713,VALID,0,VALID,88.9958,VALID,0,VALID,17.8326,VALID,224,VALID,0.453125,
2012-01-01, 01:57:04,VALID,917.655,VALID,0,VALID,88.889,VALID,0,VALID,17.9119,VALID,224,VALID,0.235156,
2012-01-01, 01:58:04,VALID,917.661,VALID,0,VALID,88.5231,VALID,0,VALID,17.8911,VALID,224,VALID,0,
2012-01-01, 01:59:04,VALID,917.658,VALID,0,VALID,88.2258,VALID,0,VALID,17.8925,VALID,224,VALID,0.111719,
2012-01-01, 02:00:04,VALID,917.642,VALID,0,VALID,88.241,VALID,0,VALID,17.9106,VALID,224,VALID,0.891016,
2012-01-01, 02:01:04,VALID,917.659,VALID,0,VALID,87.9056,VALID,0,VALID,17.8716,VALID,224,VALID,0.659375,
2012-01-01, 02:02:04,VALID,917.693,VALID,0,VALID,88.3325,VALID,0,VALID,17.7936,VALID,224,VALID,0.0957031,
2012-01-01, 02:03:04,VALID,917.687,VALID,0,VALID,89.1025,VALID,0,VALID,17.7936,VALID,224,VALID,0.400781,
2012-01-01, 02:04:04,VALID,917.68,VALID,0,VALID,88.9958,VALID,0,VALID,17.8313,VALID,224,VALID,0.433594,
2012-01-01, 02:05:04,VALID,917.669,VALID,0,VALID,89.2473,VALID,0,VALID,17.9092,VALID,224,VALID,0.668359,
2012-01-01, 02:06:04,VALID,917.679,VALID,0,VALID,88.6451,VALID,0.107441,VALID,17.9287,VALID,224,VALID,0.548828,
2012-01-01, 02:07:04,VALID,917.681,VALID,0,VALID,88.5155,VALID,0,VALID,17.9301,VALID,224,VALID,0.625781,
2012-01-01, 02:08:04,VALID,917.681,VALID,0,VALID,88.3935,VALID,0,VALID,17.9496,VALID,224,VALID,0.541406,
2012-01-01, 02:09:04,VALID,917.643,VALID,0,VALID,88.1801,VALID,0,VALID,17.9301,VALID,224,VALID,0.311328,
2012-01-01, 02:10:04,VALID,917.634,VALID,0,VALID,87.6083,VALID,0,VALID,17.9691,VALID,224,VALID,0.649219,
2012-01-01, 02:11:04,VALID,917.659,VALID,0,VALID,86.9298,VALID,0,VALID,17.9301,VALID,224,VALID,0.351563,
2012-01-01, 02:12:04,VALID,917.635,VALID,0,VALID,88.3706,VALID,0,VALID,17.8911,VALID,224,VALID,0.544141,
2012-01-01, 02:13:04,VALID,917.663,VALID,0,VALID,88.2868,VALID,0,VALID,17.9119,VALID,224,VALID,0.476172,
2012-01-01, 02:14:04,VALID,917.668,VALID,0,VALID,88.3173,VALID,0,VALID,17.9106,VALID,224,VALID,0.510938,
2012-01-01, 02:15:04,VALID,917.684,VALID,0,VALID,88.2944,VALID,0,VALID,17.9119,VALID,224,VALID,0.189453,
2012-01-01, 02:16:04,VALID,917.69,VALID,0,VALID,88.7289,VALID,0,VALID,17.9106,VALID,224,VALID,0.583984,
2012-01-01, 02:17:04,VALID,917.679,VALID,0,VALID,88.241,VALID,0,VALID,17.9301,VALID,224,VALID,0.494141,
2012-01-01, 02:18:04,VALID,917.652,VALID,0,VALID,88.4011,VALID,0,VALID,17.9106,VALID,224,VALID,0.738281,
2012-01-01, 02:19:04,VALID,917.644,VALID,0,VALID,88.3173,VALID,0,VALID,17.8911,VALID,224,VALID,0.480078,
2012-01-01, 02:20:04,VALID,917.624,VALID,0,VALID,88.4621,VALID,0,VALID,17.8118,VALID,224,VALID,0.256641,
2012-01-01, 02:21:04,VALID,917.58,VALID,0,VALID,88.4774,VALID,0,VALID,17.8326,VALID,224,VALID,0.573438,
2012-01-01, 02:22:04,VALID,917.619,VALID,0,VALID,88.424,VALID,0,VALID,17.8508,VALID,224,VALID,0.426953,
2012-01-01, 02:23:04,VALID,917.616,VALID,0,VALID,87.898,VALID,0,VALID,17.9677,VALID,224,VALID,0.373047,
2012-01-01, 02:24:04,VALID,917.602,VALID,0,VALID,87.3186,VALID,0,VALID,18.0846,VALID,224,VALID,0.159375,
2012-01-01, 02:25:04,VALID,917.602,VALID,0,VALID,86.0379,VALID,0,VALID,18.1431,VALID,224,VALID,0,
2012-01-01, 02:26:04,VALID,917.588,VALID,0,VALID,86.2361,VALID,0,VALID,18.1431,VALID,225,VALID,0,
2012-01-01, 02:27:04,VALID,917.596,VALID,0,VALID,86.541,VALID,0,VALID,18.1835,VALID,224,VALID,0,
2012-01-01, 02:28:04,VALID,917.582,VALID,0,VALID,86.5029,VALID,0,VALID,18.1807,VALID,224,VALID,0,
2012-01-01, 02:29:04,VALID,917.557,VALID,0,VALID,86.0912,VALID,0.107441,VALID,18.2406,VALID,224,VALID,0,
2012-01-01, 02:30:04,VALID,917.521,VALID,0,VALID,85.9693,VALID,0,VALID,18.2615,VALID,224,VALID,0,
2012-01-01, 02:31:04,VALID,917.518,VALID,0,VALID,85.9083,VALID,0,VALID,18.2392,VALID,224,VALID,0,
2012-01-01, 02:32:04,VALID,917.513,VALID,0,VALID,85.9464,VALID,0,VALID,18.2809,VALID,224,VALID,0,
2012-01-01, 02:33:04,VALID,917.474,VALID,0,VALID,85.9616,VALID,0.107441,VALID,18.2601,VALID,224,VALID,0.4125,
2012-01-01, 02:34:04,VALID,917.517,VALID,0,VALID,86.2056,VALID,0,VALID,18.2615,VALID,224,VALID,0.423438,
2012-01-01, 02:35:04,VALID,917.464,VALID,0,VALID,86.1598,VALID,0,VALID,18.2016,VALID,224,VALID,0.219531,
2012-01-01, 02:36:04,VALID,917.469,VALID,0,VALID,86.0912,VALID,0,VALID,18.1835,VALID,224,VALID,0.219531,
2012-01-01, 02:37:04,VALID,917.472,VALID,0,VALID,86.1446,VALID,0,VALID,18.1835,VALID,224,VALID,0.380469,
2012-01-01, 02:38:04,VALID,917.492,VALID,0,VALID,86.2666,VALID,0,VALID,18.164,VALID,224,VALID,0.407031,
2012-01-01, 02:39:04,VALID,917.455,VALID,0,VALID,86.48,VALID,0,VALID,18.1459,VALID,224,VALID,0.328906,
2012-01-01, 02:40:04,VALID,917.44,VALID,0,VALID,86.5791,VALID,0,VALID,18.086,VALID,224,VALID,0.390234,
2012-01-01, 02:41:04,VALID,917.436,VALID,0,VALID,86.5944,VALID,0,VALID,18.0874,VALID,224,VALID,0.338281,
2012-01-01, 02:42:04,VALID,917.444,VALID,0,VALID,86.4114,VALID,0,VALID,18.0665,VALID,224,VALID,0.0871094,
2012-01-01, 02:43:04,VALID,917.43,VALID,0,VALID,86.5639,VALID,0,VALID,18.0679,VALID,224,VALID,0.357812,
2012-01-01, 02:44:04,VALID,917.435,VALID,0,VALID,86.7087,VALID,0,VALID,18.0094,VALID,224,VALID,0.244922,
2012-01-01, 02:45:04,VALID,917.411,VALID,0,VALID,87.1204,VALID,0,VALID,17.9301,VALID,224,VALID,0.394922,
2012-01-01, 02:46:04,VALID,917.408,VALID,0,VALID,87.2043,VALID,0,VALID,17.8911,VALID,224,VALID,0.619531,
2012-01-01, 02:47:05,VALID,917.43,VALID,0,VALID,86.8383,VALID,0,VALID,17.9119,VALID,224,VALID,0.533203,
2012-01-01, 02:48:05,VALID,917.38,VALID,0,VALID,86.2056,VALID,0,VALID,17.9301,VALID,224,VALID,0.282422,
2012-01-01, 02:49:05,VALID,917.385,VALID,0,VALID,85.8244,VALID,0,VALID,17.9691,VALID,224,VALID,0.439063,
2012-01-01, 02:50:05,VALID,917.362,VALID,0,VALID,85.5805,VALID,0,VALID,18.0484,VALID,224,VALID,0.434375,
2012-01-01, 02:51:05,VALID,917.374,VALID,0,VALID,85.3823,VALID,0,VALID,18.1069,VALID,224,VALID,0.323828,
2012-01-01, 02:52:05,VALID,917.356,VALID,0,VALID,85.1231,VALID,0,VALID,18.1028,VALID,224,VALID,0.407813,
2012-01-01, 02:53:05,VALID,917.372,VALID,0,VALID,84.8791,VALID,0,VALID,18.1626,VALID,224,VALID,0.421484,
2012-01-01, 02:54:05,VALID,917.385,VALID,0,VALID,84.7343,VALID,0,VALID,18.164,VALID,224,VALID,0.357031,
2012-01-01, 02:55:05,VALID,917.363,VALID,0,VALID,84.6885,VALID,0,VALID,18.1055,VALID,224,VALID,0.203516,
2012-01-01, 02:56:05,VALID,917.351,VALID,0,VALID,85.8397,VALID,0,VALID,18.086,VALID,224,VALID,0.320313,
2012-01-01, 02:57:05,VALID,917.337,VALID,0,VALID,85.55,VALID,0,VALID,18.0651,VALID,224,VALID,0.286719,
2012-01-01, 02:58:05,VALID,917.324,VALID,0,VALID,85.7482,VALID,0,VALID,18.0275,VALID,224,VALID,0.161719,
2012-01-01, 02:59:05,VALID,917.306,VALID,0,VALID,86.7697,VALID,0,VALID,17.9691,VALID,224,VALID,0,
2012-01-01, 03:00:05,VALID,917.312,VALID,0,VALID,86.8688,VALID,0,VALID,17.9691,VALID,224,VALID,0,
2012-01-01, 03:01:05,VALID,917.299,VALID,0,VALID,86.6554,VALID,0,VALID,17.9314,VALID,224,VALID,0,
2012-01-01, 03:02:05,VALID,917.317,VALID,0,VALID,87.3186,VALID,0,VALID,17.8716,VALID,224,VALID,0,
2012-01-01, 03:03:05,VALID,917.313,VALID,0,VALID,87.5854,VALID,0,VALID,17.8911,VALID,224,VALID,0,
2012-01-01, 03:04:05,VALID,917.305,VALID,0,VALID,87.4482,VALID,0,VALID,17.8911,VALID,224,VALID,0,
2012-01-01, 03:05:05,VALID,917.269,VALID,0,VALID,87.1738,VALID,0,VALID,17.8313,VALID,224,VALID,0,
2012-01-01, 03:06:05,VALID,917.294,VALID,0,VALID,87.0975,VALID,0,VALID,17.7714,VALID,224,VALID,0.0960938,
2012-01-01, 03:07:05,VALID,917.275,VALID,0,VALID,87.7226,VALID,0,VALID,17.7936,VALID,224,VALID,0.0183594,
2012-01-01, 03:08:05,VALID,917.274,VALID,0,VALID,88.0962,VALID,0,VALID,17.7533,VALID,224,VALID,0,
2012-01-01, 03:09:05,VALID,917.28,VALID,0,VALID,87.9285,VALID,0,VALID,17.7547,VALID,224,VALID,0,
2012-01-01, 03:10:05,VALID,917.254,VALID,0,VALID,86.541,VALID,0,VALID,17.6948,VALID,224,VALID,0,
2012-01-01, 03:11:05,VALID,917.261,VALID,0,VALID,87.9437,VALID,0,VALID,17.6962,VALID,224,VALID,0.432031,
2012-01-01, 03:12:05,VALID,917.248,VALID,0,VALID,87.776,VALID,0,VALID,17.7352,VALID,224,VALID,0.216406,
2012-01-01, 03:13:05,VALID,917.238,VALID,0,VALID,87.7836,VALID,0,VALID,17.7157,VALID,224,VALID,0.285547,
2012-01-01, 03:14:05,VALID,917.21,VALID,0,VALID,87.959,VALID,0,VALID,17.6754,VALID,224,VALID,0.327734,
2012-01-01, 03:15:05,VALID,917.238,VALID,0,VALID,87.8446,VALID,0,VALID,17.6754,VALID,224,VALID,0.216797,
2012-01-01, 03:16:05,VALID,917.219,VALID,0,VALID,87.715,VALID,0,VALID,17.6364,VALID,224,VALID,0.110937,
2012-01-01, 03:17:05,VALID,917.185,VALID,0,VALID,86.8536,VALID,0,VALID,17.6767,VALID,224,VALID,0,
2012-01-01, 03:18:05,VALID,917.197,VALID,0,VALID,86.4572,VALID,0,VALID,17.6364,VALID,224,VALID,0,
2012-01-01, 03:19:05,VALID,917.174,VALID,0,VALID,86.9374,VALID,0,VALID,17.6364,VALID,224,VALID,0,
2012-01-01, 03:20:05,VALID,917.176,VALID,0,VALID,87.3339,VALID,0,VALID,17.6169,VALID,224,VALID,0,
2012-01-01, 03:21:05,VALID,917.155,VALID,0,VALID,87.6007,VALID,0,VALID,17.5974,VALID,224,VALID,0,
2012-01-01, 03:22:05,VALID,917.162,VALID,0,VALID,87.5778,VALID,0,VALID,17.6391,VALID,224,VALID,0,
2012-01-01, 03:23:05,VALID,917.156,VALID,0,VALID,87.2576,VALID,0,VALID,17.5766,VALID,224,VALID,0,
2012-01-01, 03:24:05,VALID,917.173,VALID,0,VALID,87.2881,VALID,0,VALID,17.5571,VALID,224,VALID,0,
2012-01-01, 03:25:05,VALID,917.158,VALID,0,VALID,87.5854,VALID,0,VALID,17.5376,VALID,224,VALID,0,
2012-01-01, 03:26:05,VALID,917.163,VALID,0,VALID,87.3796,VALID,0,VALID,17.5611,VALID,224,VALID,0,
2012-01-01, 03:27:05,VALID,917.184,VALID,0,VALID,87.3948,VALID,0,VALID,17.5403,VALID,224,VALID,0,
2012-01-01, 03:28:05,VALID,917.2,VALID,0,VALID,87.7531,VALID,0,VALID,17.5194,VALID,224,VALID,0,
2012-01-01, 03:29:05,VALID,917.188,VALID,0,VALID,87.5321,VALID,0,VALID,17.5168,VALID,224,VALID,0,
2012-01-01, 03:30:05,VALID,917.206,VALID,0,VALID,86.9679,VALID,0,VALID,17.5792,VALID,224,VALID,0,
2012-01-01, 03:31:05,VALID,917.245,VALID,0,VALID,86.6477,VALID,0,VALID,17.5792,VALID,224,VALID,0,
2012-01-01, 03:32:05,VALID,917.253,VALID,0,VALID,86.541,VALID,0,VALID,17.6014,VALID,225,VALID,0,
2012-01-01, 03:33:05,VALID,917.234,VALID,0,VALID,86.9374,VALID,0,VALID,17.5611,VALID,225,VALID,0,
2012-01-01, 03:34:05,VALID,917.243,VALID,0,VALID,86.5791,VALID,0,VALID,17.4805,VALID,224,VALID,0,
2012-01-01, 03:35:05,VALID,917.277,VALID,0,VALID,87.2347,VALID,0,VALID,17.5039,VALID,224,VALID,0,
2012-01-01, 03:36:05,VALID,917.272,VALID,0,VALID,87.2119,VALID,0,VALID,17.4038,VALID,224,VALID,0,
2012-01-01, 03:37:05,VALID,917.289,VALID,0,VALID,87.0442,VALID,0,VALID,17.3454,VALID,224,VALID,0,
2012-01-01, 03:38:05,VALID,917.284,VALID,0,VALID,87.3491,VALID,0,VALID,17.3077,VALID,224,VALID,0,
2012-01-01, 03:39:05,VALID,917.293,VALID,0,VALID,88.0581,VALID,0,VALID,17.2479,VALID,224,VALID,0,
2012-01-01, 03:40:05,VALID,917.278,VALID,0,VALID,87.7989,VALID,0,VALID,17.2324,VALID,224,VALID,0,
2012-01-01, 03:41:05,VALID,917.295,VALID,0,VALID,88.9729,VALID,0,VALID,17.17,VALID,224,VALID,0,
2012-01-01, 03:42:05,VALID,917.292,VALID,0,VALID,89.4684,VALID,0,VALID,17.1895,VALID,224,VALID,0,
2012-01-01, 03:43:05,VALID,917.299,VALID,0,VALID,89.415,VALID,0,VALID,17.17,VALID,224,VALID,0,
2012-01-01, 03:44:05,VALID,917.314,VALID,0,VALID,89.8343,VALID,0,VALID,17.1479,VALID,224,VALID,0.233594,
2012-01-01, 03:45:05,VALID,917.273,VALID,0,VALID,89.5828,VALID,0,VALID,17.2077,VALID,224,VALID,0,
2012-01-01, 03:46:05,VALID,917.288,VALID,0,VALID,89.1863,VALID,0,VALID,17.2466,VALID,224,VALID,0,
2012-01-01, 03:47:05,VALID,917.297,VALID,0,VALID,88.9195,VALID,0,VALID,17.3259,VALID,224,VALID,0,
2012-01-01, 03:48:05,VALID,917.307,VALID,0,VALID,88.2105,VALID,0,VALID,17.3246,VALID,224,VALID,0.180469,
2012-01-01, 03:49:05,VALID,917.316,VALID,0,VALID,88.0123,VALID,0,VALID,17.3272,VALID,224,VALID,0.206641,